Showing default

YAOGAN-36 03C, 54376

Orbit data source: Space-Track

YAOGAN-36 03C, 54376 is a payload satellite owned by PLA GAD (CN) in LEO that was launched on Sun, 27 Nov 2022 UTC via a CHANG ZHENG 2D launch vehicle from the Xichang Space Center, China (XSC). Payload-class satellites include a variety of spacecraft equipped with specific instruments for various scientific and technological missions. These include communications satellites like Starlink; space stations such as the ISS; scientific satellites like the Hubble; Earth observation satellites from companies like Planet Labs, Umbra, and HawkEye 360; GPS; miniature CubeSats for education and research; and military/defense satellites.

Loading next visibility...
Identifier
54376, 2022-160E
Orbit
LEO
Country
Flag of CNCN / PRC
Related business
Manufacturer
SAST
Mission
Operational Defense Sigint
Bus & Motor
Unknown
Mass
~300 kg wet, ~300 kg dry
Launch date (UTC)
2022-11-27 (4 years ago)
Launch vehicle
CHANG ZHENG 2D
Launch site
Xichang Space Center, China (XSC)
Object type
Payload
Rocket body
Debris
Shape & HBR
Box + 2 Pan, 2.5 m
Radar Cross Section
11.063 m², Large (>1 m²)

Expand to show TLE details & history
Last TLE update: 2 days ago

TLE from 2 days ago
0 YAOGAN-36 03C
1 54376U 22160E   26171.42463241  .00000203  00000-0  10015-4 0  9995
2 54376  35.0090 319.1806 0006026  70.3278 289.8087 15.22997587198547
Epoch: 2026-06-20T10:11Z
TLE epoch observation values (Epoch: 2026-06-20T10:11:28.240Z)
Latitude
0.00001°
Longitude
-102.3265°
Altitude
494.312 km
Speed
7.621 km/s
True Right ascension
21h 16m 43s
True Declination
0° 00' 00"
Sunlit
Object was in full shadow at epoch
Visualization orbit readout
Latitude
Unknown
Longitude
Unknown
Altitude
Unknown
Speed
Unknown
Apparent Right ascension
Unknown
Apparent Declination
Unknown
Sunlit
N/A
Visualization observer readout
Local Sidereal Time
00:25:02
Azimuth
Unknown
Elevation
Unknown
Doppler factor
Unknown
Orbital elements
Apogee altitude
504.198 km
Perigee altitude
495.909 km
Semi-major axis
6,878.191 km
Eccentricity
0.0006
Inclination
35.009°
RAAN
319.1806°
Arg. of periapsis
70.3278°
True anomaly
289.74372°
Mean anomaly
289.8087°
Eccentric anomaly
289.77621°
Mean motion
3.8048 °/min
Orbital period
94.62 mins
BSTAR
0.000010015
Loading maneuver chart data...
Computing Atmospheric mass density...
Loading historical data...
Loading historical data...
Loading historical data...
Loading historical data...
Loading historical data...
Loading historical data...
Loading historical data...
Other satellites on launch #160 in the year 2022 (2022-11-27 UTC)

Documentation

Showing up to 5 results
|